This demonstration page uses our WeatherBlox Daily Observations layout. Learn more.

Left ArrowRight Arrow

36.17497, -115.13722

Hourly Observations for November 8, 2020

Temp ( °F °C ) Dew Point ( °F °C ) Humidity (%) Winds ( mph kmh ) Pressure ( in mb ) Visibility ( mi km ) Precip ( " mm )
12:53 am 00:53 Clear 48 8.9 28 -2.2 46 46 S 12 19 29.65 1004 10 16 0.00 0.00
1:53 am 01:53 Clear 48 8.9 28 -2.2 46 46 S 13 20 29.65 1004 10 16 0.00 0.00
2:53 am 02:53 Clear 47 8.3 28 -2.2 48 48 S 18 30 29.63 1003 10 16 0.00 0.00
3:53 am 03:53 Clear 48 8.9 28 -2.2 46 46 S 15 24 29.62 1003 10 16 0.00 0.00
4:53 am 04:53 Clear 48 8.9 27 -2.8 44 44 S 15 24 29.63 1003 10 16 0.00 0.00
5:53 am 05:53 Mostly Clear 48 8.9 28 -2.2 46 46 S 17 28 29.63 1003 10 16 0.00 0.00
6:53 am 06:53 Partly Cloudy 49 9.4 28 -2.2 44 44 S 20 31 29.64 1004 10 16 0.00 0.00
7:53 am 07:53 Cloudy 49 9.4 28 -2.2 44 44 SSE 15 24 29.65 1004 10 16 0.00 0.00
8:53 am 08:53 Cloudy 50 10 28 -2.2 43 43 S 15 24 29.65 1004 10 16 0.00 0.00
9:53 am 09:53 Cloudy 51 10.6 27 -2.8 39 39 S 14 22 29.64 1004 10 16 0.00 0.00
10:53 am 10:53 Cloudy 52 11.1 26 -3.3 37 37 SSW 14 22 29.64 1004 10 16 0.00 0.00
11:53 am 11:53 Mostly Cloudy 55 12.8 26 -3.3 33 33 SSW 24 39 29.61 1003 10 16 0.00 0.00
12:53 pm 12:53 Cloudy 55 12.8 23 -5 29 29 W 10 17 29.60 1002 10 16 0.00 0.00
1:53 pm 13:53 Mostly Cloudy 55 12.8 21 -6.1 26 26 SW 18 30 29.60 1002 10 16 0.00 0.00
2:53 pm 14:53 Sunny 53 11.7 26 -3.3 35 35 SW 13 20 29.60 1002 10 16 0.00 0.00
3:53 pm 15:53 Sunny 52 11.1 23 -5 32 32 W 16 26 29.60 1003 10 16 0.00 0.00
4:53 pm 16:53 Clear 52 11.1 22 -5.6 31 31 S 5 7 29.61 1003 10 16 0.00 0.00
5:53 pm 17:53 Clear 51 10.6 21 -6.1 31 31 W 8 13 29.64 1004 10 16 0.00 0.00
6:53 pm 18:53 Clear 49 9.4 30 -1.1 48 48 NW 9 15 29.66 1005 10 16 0.00 0.00
7:53 pm 19:53 Mostly Clear 49 9.4 30 -1.1 48 48 W 5 7 29.69 1005 10 16 0.00 0.00
8:53 pm 20:53 Mostly Cloudy 48 8.9 30 -1.1 50 50 NW 18 30 29.71 1006 10 16 0.00 0.00
9:53 pm 21:53 Mostly Cloudy 47 8.3 30 -1.1 52 52 NW 16 26 29.75 1008 10 16 0.00 0.00
10:53 pm 22:53 Cloudy 47 8.3 30 -1.1 52 52 NNW 16 26 29.77 1008 10 16 0.00 0.00
11:53 pm 23:53 Mostly Cloudy 47 8.3 28 -2.2 48 48 WNW 10 17 29.79 1009 10 16 0.00 0.00

Powered by AerisWeather